METOP-A

Last updated on Tue Mar 15 2022 00:02:21 GMT+0000 (Greenwich Mean Time)

1 29499U 06044A 22073.56649630 .00000985 00000+0 14054-3 0 9998 2 29499 98.4644 115.1131 0197596 305.6410 171.7595 14.66983299796766
UTC large
Height (km)
Speed (km/s)
/
Latitude / Longitude
Inclination (degrees)
Orbital Period (minutes)
Azimuth
Elevation
Range (km)
Doppler Factor

Next 0 passes for location: London (51.5072 / 0.1276)

Sorry there are no passes over London.